Hourly Data Report for September 05, 2017

All times are specified in Local Standard Time (LST). Add 1 hour to adjust for Daylight Saving Time where and when it is observed.

POND INLET A
NUNAVUT

72°41'22.000" N
77°58'08.000" W
61.60 m
2403206
71095
YIO

Download Data

Hourly Data (September 2017)
Hourly Data Report for September 5, 2017
Temp Definition
°C
Dew Point Temp Definition
°C
Rel Hum Definition
%
Wind Dir Definition
10's deg

Wind Spd Definition
km/h
Visibility Definition
km
Stn Press Definition
kPa
Hmdx Definition


Wind Chill Definition


Weather Definition


TIME
00:00 Legend Double Dagger -2.6 -5.3 82 14 9 16.1 100.52   -6 LegendNANA
01:00 Legend Double Dagger -1.9 -4.9 80 15 8 16.1 100.51   -5 LegendNANA
02:00 Legend Double Dagger -2.1 -5.1 80 14 8 16.1 100.50   -5 LegendNANA
03:00 Legend Double Dagger -1.4 -4.6 79   0 16.1 100.50     LegendNANA
04:00 Legend Double Dagger -1.1 -4.6 77 14 4 16.1 100.48   -2 LegendNANA
05:00 Legend Double Dagger -0.7 -4.2 77 15 4 16.1 100.47   -2 LegendNANA
06:00 Legend Double Dagger -0.8 -4.0 79 16 9 16.1 100.45   -4 LegendNANA
07:00 Legend Double Dagger -0.4 -4.0 77 15 8 16.1 100.43   -3 LegendNANA
08:00 Legend Double Dagger 0.4 -3.3 76 17 11 16.1 100.44     LegendNANA
09:00 Legend Double Dagger 1.6 -2.7 73 20 8 16.1 100.43     LegendNANA
10:00 Legend Double Dagger 1.7 -4.2 65 31 8 16.1 100.43     LegendNANA
11:00 Legend Double Dagger 1.7 -3.8 67 34 9 16.1 100.42     LegendNANA
12:00 Legend Double Dagger 1.7 -3.4 69 33 8 16.1 100.42     LegendNANA
13:00 Legend Double Dagger 2.6 -2.5 69 34 9 16.1 100.43     LegendNANA
14:00 Legend Double Dagger 3.1 -2.1 69 3 8 16.1 100.45     LegendNANA
15:00 Legend Double Dagger 3.3 -2.3 67 LegendMM 4 16.1 100.46     LegendNANA
16:00 Legend Double Dagger 3.9 -2.4 64 LegendMM 4 16.1 100.48     LegendNANA
17:00 Legend Double Dagger 3.3 -3.6 61 28 5 16.1 100.47     LegendNANA
18:00 Legend Double Dagger 1.9 -4.0 65 25 13 16.1 100.47     LegendNANA
19:00 Legend Double Dagger 0.4 -4.7 69 22 15 16.1 100.48     LegendNANA
20:00 Legend Double Dagger -0.4 -5.1 71 18 11 16.1 100.49   -4 LegendNANA
21:00 Legend Double Dagger -0.6 -4.7 74 19 13 16.1 100.48   -5 LegendNANA
22:00 Legend Double Dagger -0.9 -4.8 75 19 13 16.1 100.48   -5 LegendNANA
23:00 Legend Double Dagger -0.9 -4.3 78 19 15 16.1 100.46   -6 LegendNANA

Notes on Data Quality.

Legend

  • E = Estimated
  • M = Missing
  • NA = Not Available
  • ‡ = Partner data that is not subject to review by the National Climate Archives
Date modified: